Tracking 28790 objects as of 18-Apr-2024
HD Live streaming from Space Station
objects crossing your sky now

NOAA 16 DEB

Track NOAA 16 DEB now!
10-day predictions


NORAD ID: 42368
Int'l Code: 2000-055RL
Perigee: 827.2 km
Apogee: 847.8 km
Inclination: 98.8 °
Period: 101.5 minutes
Semi major axis: 7208 km
RCS: Unknown
Launch date: September 21, 2000
Source: United States (US)
Launch site: AIR FORCE WESTERN TEST RANGE (AFWTR)

Note: This is SATELLITE DEBRIS
Your satellite tracking list
Your tracking list is empty




NASA's NSSDC Master Catalog

Two Line Element Set (TLE):
1 42368U 00055RL  24105.14538145  .00004683  00000-0  22828-2 0  9991
2 42368  98.7589 179.6839 0014299 195.6844 164.3890 14.18511834414181
Source of the keplerian elements: AFSPC